STARLINK-3058, 49138

Orbit data source: Space-Track

STARLINK-3058, 49138 is a payload satellite owned by SpaceX/Seattle (US) in LEO that was launched on Tue, 14 Sep 2021 UTC via an FALCON 9 launch vehicle from the Air Force Western Test Range (AFWTR). Payload-class satellites include a variety of spacecraft equipped with specific instruments for various scientific and technological missions. These include communications satellites like Starlink; space stations such as the ISS; scientific satellites like the Hubble; Earth observation satellites from companies like Planet Labs, Umbra, and HawkEye 360; GPS; miniature CubeSats for education and research; and military/defense satellites.

Loading next visibility...
Identifier
49138, 2021-082J
Orbit
LEO
Country
Flag of USUS
Related business
Manufacturer
SpaceX/Seattle
Mission
Operational Commercial Communications
Bus & Motor
STARLINK, Unknown motor
Mass
297 kg wet, ~275 kg dry
Launch date (UTC)
2021-09-14 (5 years ago)
Launch vehicle
FALCON 9
Launch site
Air Force Western Test Range (AFWTR)
Object type
Payload
Rocket body
Debris
Shape & HBR
Box + 1 Pan, 10.1 m
Radar Cross Section
13.562 m², Large (>1 m²)

Expand to show TLE details & history
Last TLE update: 16 hours ago

TLE from 16 hours ago
0 STARLINK-3058
1 49138U 21082J   26125.45993336 -.00000143  00000-0 -41982-5 0  9995
2 49138  69.9987 151.3249 0003703 266.6725  93.4010 14.98328980254489
Epoch: 2026-05-05T11:02Z
TLE epoch observation values (Epoch: 2026-05-05T11:02:18.242Z)
Latitude
-0.00006°
Longitude
122.41441°
Altitude
574.636 km
Speed
7.574 km/s
True Right ascension
10h 05m 17s
True Declination
0° 00' 00"
Sunlit
Object was in daylight at epoch
Visualization orbit readout
Latitude
Unknown
Longitude
Unknown
Altitude
Unknown
Speed
Unknown
Apparent Right ascension
Unknown
Apparent Declination
Unknown
Sunlit
N/A
Visualization observer readout
Local Sidereal Time
10:39:23
Azimuth
Unknown
Elevation
Unknown
Doppler factor
Unknown
Orbital elements
Apogee altitude
572.58 km
Perigee altitude
567.435 km
Semi-major axis
6,948.144 km
Eccentricity
0.00037
Inclination
69.9987°
RAAN
151.3249°
Arg. of periapsis
266.6725°
True anomaly
93.44336°
Mean anomaly
93.401°
Eccentric anomaly
93.42218°
Mean motion
3.74749 °/min
Orbital period
96.06 mins
BSTAR
-0.0000041982
Loading maneuver chart data...
Computing Atmospheric mass density...

Documentation

Showing up to 5 results
|